Location: DARK SKY Beskydy - Park tmavé oblohy, www.darkskybeskydy.cz
(49.4926°N, 18.5016°E)
Time: 10:42:48
(UTC+02:00)

Vanguard 1 - Pass Details

Date: 28 February 2024
Orbit: 653 x 3825 km, 34.2° (Epoch: 12 April)

Event Time Altitude Azimuth Distance (km) Brightness Sun altitude
Rises 16:52:22 0° 193° (SSW) 4,595 14.0 4.5°
Reaches altitude 10° 16:56:04 10° 177° (S) 4,063 13.4 3.9°
Maximum altitude 17:03:47 21° 134° (SE) 4,108 13.0 2.7°
Drops below altitude 10° 17:14:37 10° 95° (E) 5,956 13.5 1.0°
Enters shadow 17:21:52 - 83° (E) 7,474 13.8 -0.2°
Sets 17:21:53 0° 83° (E) 7,475 13.8 -0.2°
